Home > Weather > Springfield > Past weeks

Flag for USA Past Weather in Springfield, Missouri, USA — Yesterday and Last 2 Weeks

Now
89 °F

Sunny.


Feels Like: 94 °F
Forecast: 71 / 88 °F
Wind: 5 mph from North

Location: Springfield Regional Airport

Current Time: Jul 28, 2016 at 3:29:23 PM

Latest Report: Jul 28, 2016 at 2:52 PM


Visibility: 10 mi

Pressure: 29.89 "Hg

Humidity: 52%

Dew Point: 69 °F

Location of SpringfieldLocation

Past Weather in Springfield — Graph

°F

Springfield Temperature Yesterday

Maximum temperature yesterday: 87 °F (at 3:52 PM)
Minimum temperature yesterday: 73 °F (at 12:52 AM)
Average temperature yesterday: 77 °F

High & Low Weather Summary for the Past Weeks

 TemperatureHumidityPressure
High97 °F (Jul 23, 1:52 PM)94% (Jul 27, 5:52 AM)30.21 "Hg (Jul 27, 5:52 AM)
Low64 °F (Jul 15, 1:52 AM)36% (Jul 23, 4:52 PM)29.84 "Hg (Jul 13, 3:52 PM)
Average82 °F71%30.01 "Hg
* Reported Jul 13 1:52 PM — Jul 28 1:52 PM, Springfield, Weather by CustomWeather, © 2016

Note: Actual official high and low records may vary slightly from our data, if they occured in-between our weather recording intervals... More about our weather records

Advertising

Springfield Weather History for the Previous 24 Hours

Scroll right to see more
 ConditionsComfort  
Time TempWeatherWind HumidityBarometerVisibility
1:52 PM
Thu, Jul 28
89 °FSunny.3 mph50%29.90 "Hg10 mi
12:52 PM89 °FSunny.7 mph53%29.91 "Hg10 mi
11:52 AM88 °FPassing clouds.10 mph61%29.93 "Hg10 mi
10:52 AM86 °FSunny.7 mph67%29.92 "Hg10 mi
9:52 AM82 °FSunny.5 mph74%29.93 "Hg10 mi
8:52 AM78 °FSunny.6 mph82%29.95 "Hg10 mi
7:52 AM76 °FSunny.6 mph85%29.94 "Hg10 mi
6:52 AM71 °FClear.3 mph87%29.93 "Hg10 mi
5:52 AM70 °FClear.No wind90%29.93 "Hg10 mi
4:52 AM71 °FClear.5 mph90%29.91 "Hg10 mi
3:52 AM72 °FClear.3 mph91%29.90 "Hg10 mi
2:52 AM73 °FClear.No wind88%29.91 "Hg10 mi
1:52 AM73 °FPassing clouds.3 mph88%29.92 "Hg10 mi
12:52 AM74 °FClear.No wind88%29.94 "Hg10 mi
11:52 PM
Wed, Jul 27
74 °FClear.No wind88%29.93 "Hg10 mi
10:52 PM75 °FClear.5 mph85%29.92 "Hg10 mi
9:52 PM75 °FClear.5 mph88%29.91 "Hg10 mi
8:52 PM77 °FSunny.No wind85%29.89 "Hg10 mi
7:52 PM81 °FSunny.No wind79%29.90 "Hg10 mi
6:52 PM82 °FSunny.No wind77%29.89 "Hg10 mi
5:52 PM84 °FSunny.5 mph67%29.88 "Hg10 mi
4:52 PM87 °FPartly sunny.6 mph59%29.89 "Hg10 mi
3:52 PM87 °FPassing clouds.No wind59%29.91 "Hg10 mi
Weather by CustomWeather, © 2016

See weather overviewHow to use our weather pages